{"data":{"norad_id":60307,"epoch":"2026-09-20T05:52:23.695680Z","epoch_age_seconds":207616,"freshness":"STALE","line1":"1 60307U 24133G   26263.24471870 -.00000133  00000+0  37635-5 0  9997","line2":"2 60307  53.1581 266.9523 0001110  69.2714 290.8423 15.69708321124294","mean_motion":15.69708321,"eccentricity":0.000111,"inclination_deg":53.1581,"raan_deg":266.9523,"arg_perigee_deg":69.2714,"mean_anomaly_deg":290.8423,"bstar":3.7635e-6,"rev_number":12429,"period_min":91.736788340565,"perigee_km":358.98365166976,"apogee_km":360.47945848899,"semimajor_km":6737.8685550794,"source":"CELESTRAK","updated_at":"2026-09-22T09:00:49.197696Z"}}